Regional Weather Roundup
Issued by NWS Green Bay, WI

Home | Current Version | Previous Version | Graphics & Text | Print | Product List | Glossary Off
Versions: 1 2 3 4 5 6 7 8 9 10 11 12 13 14 15 16 17 18 19 20 21 22 23 24 25 26 27 28 29 30 31 32 33 34 35 36 37 38 39 40 41 42 43 44 45 46 47 48 49 50

000
ASUS43 KGRB 251159
RWRGRB

NORTH-CENTRAL AND NORTHEAST WISCONSIN REGIONAL WEATHER ROUNDUP
NATIONAL WEATHER SERVICE GREEN BAY WI
700 AM CDT FRI JUL 25 2014

WIZ005-009-010>012-018-019-251300-
NORTH CENTRAL WISCONSIN

CITY           SKY/WX    TMP DP  RH WIND       PRES   REMARKS
IRONWOOD       NOT AVBL
MANITOWISH WTR NOT AVBL
ARBOR VITAE    NOT AVBL
EAGLE RIVER    NOT AVBL
LAND O LAKES   NOT AVBL
RHINELANDER    LGT RAIN  61  58  90 SW8       29.97F
PHILLIPS       CLOUDY    62  59  90 S9        29.93F
ANTIGO         NOT AVBL
TOMAHAWK       NOT AVBL
MERRILL        NOT AVBL
$$

WIZ013-073-251300-
NORTHEAST WISCONSIN

CITY           SKY/WX    TMP DP  RH WIND       PRES   REMARKS
IRON MOUNTAIN  CLOUDY    61  55  81 S3        29.95R
MARINETTE      CLOUDY    61  50  67 SW7       29.98R
$$

WIZ017-030-035>037-045-251300-
CENTRAL WISCONSIN

CITY           SKY/WX    TMP DP  RH WIND       PRES   REMARKS
MEDFORD        NOT AVBL
WAUSAU         LGT RAIN  62  60  93 VRB3      29.99R
MOSINEE        CLOUDY    63  59  88 E8        29.98S
MARSHFIELD     CLOUDY    62  58  86 S7        29.97R
WISC RAPIDS    CLOUDY    62  58  86 S9        30.00R
STEVENS POINT  NOT AVBL
WAUPACA        CLOUDY    63  58  85 S3        30.00S
SHAWANO        CLOUDY    63  55  74 CALM      30.00R
CLINTONVILLE   PTSUNNY   63  54  72 CALM      30.01R
$$

WIZ038-039-048-051-251300-
FOX VALLEY

CITY           SKY/WX    TMP DP  RH WIND       PRES   REMARKS
NWS GREEN BAY  MOSUNNY   64  54  69 SW7       30.01R
APPLETON       PTSUNNY   63  52  67 SW10      30.02R
OSHKOSH        CLOUDY    62  53  72 SW10      30.01S
FOND DU LAC    CLOUDY    61  50  67 S9        30.03S
$$

WIZ022-050-052-251300-
EAST CENTRAL WISCONSIN

CITY           SKY/WX    TMP DP  RH WIND       PRES   REMARKS
STURGEON BAY   CLOUDY    63  50  63 SW10      30.00R
MANITOWOC      NOT AVBL
SHEBOYGAN      PTSUNNY   64  50  60 SW13      30.04R
$$

LMZ563-521-522-541>543-251300-
LAKESHORE

STATION/POSITION TIME  TEMP    WIND        PRES    VSBY  WAVE
                       AIR SEA DIR/SP/G                  HT/PER
                 (UTC) (F)     (DEG/KT/KT) (MB)    (MI)  (FT/S)
SHEBOYGAN LKSHOR 1100   61     190/  5/  5 1016.1F
KEWAUNEE LKSHORE 1100   62     250/  7/ 10 1016.5R
NORTHPORT PIER   1100   61     150/  2/  3 1014.6S
N MID LAKE BUOY  1100   57 53  190/ 10/ 12 1014.3R         2/ 4
CHAMBERS ISLAND  1100   65     200/  5/ 11 1014.9S
MENOMINEE LKSHOR 1100   64     210/  9/ 12 1015.3S
$$



USA.gov is the U.S. government's official web portal to all federal, state and local government web resources and services.